Theta_e
294 290 288 292 291 291 289 287 287 289 294 291 290 291 294 293 291 290 290 291 292 293 292 293 296 297 297 299 300 300 302 303 303 301 299 299 296 295 295 295 296 296 296 295
291 288 294 295 293 291 290 287 288 290 293 291 290 290 292 292 292 294 294 294 293 291 290 292 294 295 297 298 299 301 302 303 304 303 297 295 293 291 292 292 291 291 291 290
290 293 296 295 292 290 289 288 286 289 290 289 287 287 289 292 294 294 295 297 295 293 291 291 293 294 295 297 299 301 303 304 300 296 294 291 291 291 290 289 287 288 289 288
291 294 294 291 290 292 287 292 291 290 287 284 288 283 287 290 291 292 295 295 294 292 292 292 294 294 295 297 300 304 304 298 296 295 293 292 292 289 288 287 286 286 287 286
290 291 291 289 291 294 289 292 290 288 285 282 284 281 286 290 290 293 296 294 292 292 291 291 293 295 296 297 300 303 299 296 296 295 294 292 290 287 286 285 284 284 284 284
290 293 293 293 293 294 293 290 289 286 284 279 284 284 285 287 291 293 297 295 291 290 291 292 294 295 294 294 296 298 296 294 295 294 291 290 287 286 284 283 283 282 282 282
289 290 292 293 290 291 291 288 280 278 277 279 284 282 289 291 293 293 295 294 289 289 289 290 291 292 292 292 293 295 295 293 292 291 290 289 287 286 284 283 283 282 281 280
285 283 291 293 292 289 288 287 281 274 276 279 283 280 286 291 294 294 293 291 288 288 290 290 291 291 292 292 292 294 293 291 290 289 288 287 286 285 285 284 283 282 281 281
284 285 289 290 291 294 286 285 290 284 272 275 282 285 290 290 291 291 291 288 286 287 288 289 290 290 290 290 291 292 291 290 289 288 287 286 286 285 284 283 282 282 281 281
290 284 287 288 291 290 288 290 283 282 273 272 280 281 286 288 289 292 290 288 287 287 286 287 287 288 289 289 289 291 290 289 288 288 287 286 285 285 283 282 281 281 281 280
291 289 284 287 286 287 286 285 286 286 281 276 275 283 289 290 291 291 292 288 287 287 286 286 286 287 287 286 285 287 288 287 286 286 285 284 284 283 282 281 281 280 280 279
292 289 280 285 287 288 288 288 288 284 280 281 280 285 289 290 290 290 291 289 287 288 286 286 286 285 285 284 284 285 284 284 285 285 284 284 283 282 281 281 280 280 279 279
293 288 281 283 286 287 286 288 291 290 286 284 279 285 287 288 290 290 289 287 287 286 284 285 284 284 285 284 285 284 284 284 284 284 284 282 282 282 281 280 280 280 279 279
298 289 284 284 285 287 283 285 287 289 285 285 286 289 291 287 288 290 287 287 286 286 285 285 284 284 285 285 285 284 284 285 284 284 283 282 282 281 281 280 280 279 279 278
296 287 289 289 287 286 283 286 287 287 289 286 289 289 293 294 294 297 292 288 286 286 285 285 285 284 285 285 284 284 284 284 284 283 283 282 282 281 280 280 280 279 279 279
296 288 288 287 289 289 287 287 285 287 290 290 291 290 298 294 294 293 291 289 287 287 287 287 286 285 284 284 284 284 284 284 284 283 282 282 281 281 281 281 280 279 279 278
290 290 287 285 289 288 283 288 289 290 290 290 287 292 296 293 294 294 293 289 289 289 289 288 287 286 286 285 285 283 284 284 283 283 282 282 282 281 281 281 280 279 278 278
285 288 288 285 285 278 287 288 292 291 292 294 293 294 296 295 296 295 292 291 290 290 290 289 288 288 286 286 285 285 284 283 283 283 283 282 282 281 281 280 279 279 278 277
287 285 283 281 282 284 285 283 285 285 288 292 293 294 295 296 288 294 292 291 292 291 291 291 290 288 287 285 285 284 283 283 283 283 282 282 282 281 280 280 279 279 278 277
287 288 284 283 279 277 282 281 283 288 283 281 290 292 289 286 284 293 292 289 289 289 288 288 287 286 286 285 284 283 282 282 282 283 283 283 283 282 281 281 280 279 279 278
281 282 280 281 281 282 287 284 285 281 282 278 281 283 283 285 289 285 286 286 285 285 286 286 286 286 286 284 284 282 282 282 283 283 283 282 283 283 282 282 280 280 278 276
279 279 278 281 279 276 287 282 284 286 281 281 283 284 284 285 284 283 283 284 285 286 285 285 285 284 284 284 284 283 282 284 283 282 282 282 283 283 282 282 281 278 277 275
280 282 279 282 282 283 281 282 283 282 282 280 282 284 284 284 283 280 282 281 282 281 282 283 283 281 281 284 285 284 282 282 281 282 282 282 282 282 282 280 276 274 274 274
280 281 282 283 284 283 282 283 284 283 281 281 281 283 282 282 281 280 279 281 281 279 280 279 280 279 277 277 279 279 279 279 281 281 279 277 277 274 274 274 274 273 271 270
281 282 280 279 281 280 282 283 285 286 282 280 281 282 282 281 279 280 279 278 279 278 277 278 279 277 275 275 274 273 275 277 276 273 271 271 271 271 268 269 268 269 265 268
278 280 280 281 284 285 284 284 284 284 281 281 280 279 280 281 280 279 277 278 277 277 275 276 275 275 272 271 269 269 270 273 272 270 269 269 268 267 268 268 266 274 273 275
Wind_Speed
1 4 9 16 11 5 5 5 6 4 4 5 9 14 15 9 8 10 11 13 14 17 8 9 8 8 7 6 7 7 9 8 8 8 8 6 5 5 6 6 7 8 7 8
3 9 16 4 6 6 5 5 10 8 6 8 9 14 10 8 10 17 18 18 17 9 10 11 9 8 9 9 8 8 10 10 8 6 6 5 5 5 5 6 7 6 7 6
10 8 8 9 5 7 9 9 5 9 3 4 4 10 10 10 14 11 17 19 14 19 17 14 13 11 9 10 10 10 11 11 7 10 10 8 9 7 5 5 4 4 6 6
8 6 6 6 7 9 7 7 6 6 2 7 4 12 7 6 12 10 19 18 16 14 14 16 16 13 13 11 8 11 13 10 11 12 11 14 10 10 3 4 4 5 6 7
10 7 8 5 8 10 7 4 5 2 3 2 4 7 8 7 9 13 18 13 13 15 20 20 19 16 12 10 11 11 11 11 12 11 10 8 9 8 8 6 8 7 6 6
4 2 7 8 3 7 7 5 6 5 3 7 11 10 7 8 13 7 16 9 12 13 16 14 12 12 10 8 9 11 13 11 12 11 11 11 15 15 11 9 8 5 4 4
3 6 3 5 5 3 5 7 2 4 1 10 4 8 16 7 6 10 14 9 9 11 14 14 16 15 13 13 11 11 13 11 11 12 12 13 13 16 17 14 10 11 7 4
9 6 14 8 11 9 9 9 8 8 6 6 2 11 8 9 9 9 9 6 8 11 13 15 17 16 16 14 13 14 13 12 13 13 13 13 13 10 10 10 10 8 7 7
7 7 2 1 3 12 6 9 5 2 2 3 7 9 9 8 9 10 13 1 7 10 11 13 13 14 15 14 14 15 14 13 14 14 14 13 13 13 12 11 8 7 8 7
6 3 2 0 4 3 7 7 3 2 2 6 6 9 12 6 9 16 10 8 8 8 9 10 12 13 12 12 10 11 12 13 13 13 13 12 12 11 10 10 11 11 9 9
5 5 0 4 6 12 4 4 3 5 6 6 4 11 7 6 7 9 11 9 10 12 12 12 11 11 11 10 9 10 11 11 11 12 11 12 10 10 10 10 10 11 10 10
9 3 5 10 3 3 1 8 7 8 7 5 2 20 6 5 4 6 9 5 7 10 11 12 11 10 10 11 11 12 10 11 11 11 11 12 11 11 12 11 11 10 12 10
9 4 1 3 3 2 8 9 17 2 3 16 7 14 2 2 4 4 5 5 6 8 9 8 9 13 13 13 12 12 11 12 11 11 13 12 12 12 12 12 11 11 11 10
9 5 9 11 6 6 8 9 10 17 11 8 23 27 15 3 2 7 1 5 8 10 13 13 12 12 13 14 15 14 13 12 12 12 13 14 14 14 13 12 12 11 10 11
8 8 11 16 3 3 3 9 18 23 32 15 30 21 37 12 12 18 5 7 8 11 13 16 16 14 14 15 15 14 14 13 14 14 13 13 11 10 10 11 11 10 10 9
11 7 9 17 15 14 12 10 15 18 25 24 27 29 22 7 7 8 9 10 13 14 17 16 16 17 19 18 17 16 16 14 13 14 13 10 10 10 11 11 11 10 9 8
10 10 10 22 16 14 10 34 23 21 16 21 25 35 30 13 14 16 13 9 13 15 17 16 19 18 16 18 17 17 17 15 15 14 12 12 12 12 11 11 10 11 10 8
1 7 10 12 5 15 13 4 20 26 27 27 25 29 26 20 20 16 5 10 16 14 13 15 15 16 17 16 16 15 14 15 15 14 13 12 12 12 10 10 11 9 8 10
12 4 3 4 7 5 7 5 7 10 19 20 23 28 28 24 6 19 10 10 13 14 15 15 14 12 14 16 16 15 15 16 15 15 14 14 13 13 12 12 11 9 8 7
10 12 8 4 5 9 7 2 2 6 11 5 14 22 13 5 3 14 5 6 10 9 6 8 9 8 13 13 14 16 15 15 15 15 14 13 13 13 13 13 11 8 6 8
6 5 16 12 8 5 7 4 4 6 8 2 2 3 5 7 7 4 7 4 3 2 7 8 11 12 11 12 13 14 14 15 13 9 11 11 13 14 12 11 7 9 9 6
9 9 5 6 7 8 9 5 10 6 3 4 3 3 5 6 5 4 3 3 5 7 7 5 8 7 7 10 12 10 11 9 9 12 13 13 13 10 9 11 9 9 9 9
4 8 7 9 7 3 4 3 2 2 5 1 3 2 5 4 4 1 1 2 3 4 5 4 9 9 6 8 9 12 6 10 11 12 12 12 11 10 9 11 10 6 7 6
3 3 3 3 5 6 4 4 3 1 3 1 2 3 3 3 2 1 2 3 3 1 5 4 10 8 6 3 5 5 8 10 12 11 10 8 9 7 6 4 6 6 6 5
1 5 5 4 3 5 10 7 7 7 5 4 3 2 2 3 2 3 3 2 3 3 3 4 8 8 6 6 6 4 6 8 8 7 6 6 5 6 5 4 3 3 1 4
6 8 6 6 6 4 2 4 10 8 7 6 4 2 3 4 6 4 3 3 2 4 2 6 6 9 6 7 6 5 4 6 8 7 5 5 5 4 5 5 4 5 6 8
Wind_Direction
208 122 201 210 199 183 171 198 239 245 218 179 226 240 250 221 233 242 236 228 220 219 185 175 175 166 162 167 160 164 144 147 141 129 121 110 102 93 76 70 61 71 77 83
66 230 225 172 191 218 234 236 258 296 228 182 253 252 244 218 232 224 229 232 221 191 177 178 172 171 175 172 175 166 158 158 154 142 111 112 121 89 86 86 64 58 80 86
178 213 176 167 171 194 232 222 235 230 349 246 322 271 238 244 237 242 241 238 221 204 185 177 178 180 175 180 175 171 162 160 135 123 115 108 107 109 101 85 70 51 77 81
238 241 147 172 201 176 220 210 212 249 311 261 137 284 225 236 244 233 249 232 221 192 184 176 179 182 183 184 172 166 160 148 141 143 142 150 146 142 113 113 108 86 68 76
233 178 188 172 199 167 228 180 206 240 230 334 199 278 274 203 244 249 248 239 208 193 180 182 185 178 177 167 168 165 153 150 149 147 153 140 129 109 116 106 103 93 80 75
230 252 162 197 141 169 147 86 50 50 30 268 203 216 187 202 221 246 262 242 197 183 185 181 167 160 164 157 155 155 153 154 153 153 147 145 142 136 131 132 123 113 105 97
159 217 193 145 97 63 127 114 300 321 333 250 323 230 252 290 241 218 250 256 189 178 174 165 162 168 163 165 164 159 157 156 153 150 148 148 152 145 146 148 146 143 135 119
177 275 178 186 186 171 193 163 162 214 211 277 341 246 257 231 262 255 270 258 171 178 179 176 172 168 168 169 166 164 163 159 157 153 149 151 152 150 147 150 149 146 143 145
178 261 10 119 129 155 200 212 183 16 90 1 227 288 278 258 285 270 262 209 170 182 181 174 167 170 169 172 175 169 165 162 162 157 154 157 156 156 158 148 143 142 140 144
220 260 51 199 98 40 154 168 91 10 210 253 280 268 242 275 245 249 268 226 195 171 160 167 172 172 175 173 171 170 167 166 164 158 159 161 159 154 147 147 148 150 148 142
167 157 246 115 206 176 150 177 173 134 155 189 276 258 216 226 245 264 264 218 185 180 178 175 177 178 172 164 156 159 161 156 160 159 157 153 152 147 148 152 153 152 143 146
209 125 177 200 214 234 338 195 169 172 207 238 153 266 172 189 245 265 292 229 182 175 171 171 174 169 165 162 162 166 162 163 165 156 152 157 152 152 154 160 159 156 155 158
175 187 67 321 14 292 213 210 211 141 102 219 156 263 353 176 9 291 250 203 170 158 155 168 170 177 176 174 175 174 169 165 159 157 158 156 158 160 166 165 162 158 155 160
115 170 195 217 175 142 187 202 201 208 225 198 231 255 243 196 279 294 211 185 184 180 180 179 186 187 182 180 179 177 175 169 164 165 167 168 171 171 169 165 164 162 163 161
149 225 213 242 163 136 215 209 203 208 225 203 253 231 256 242 254 259 245 206 190 193 193 193 186 185 186 184 180 178 176 172 170 172 175 179 169 163 159 162 164 163 167 169
177 217 197 252 235 228 248 237 229 233 240 231 247 258 252 194 267 271 227 209 204 205 209 203 194 184 188 187 182 176 176 178 171 175 181 167 163 161 167 165 165 164 171 168
185 208 192 240 229 233 233 235 233 230 234 225 233 242 265 263 255 251 248 215 214 213 211 200 199 192 188 188 183 183 174 166 174 175 168 168 170 174 175 165 165 174 178 169
52 210 223 247 158 216 235 193 231 227 235 231 245 258 259 255 261 271 244 223 230 219 211 201 195 191 185 179 177 171 169 167 172 176 172 169 170 172 167 168 176 172 175 182
178 182 229 227 234 304 289 200 157 166 246 231 230 246 256 264 348 275 222 225 227 214 213 206 192 177 168 172 169 165 167 170 175 179 174 172 171 170 171 179 180 179 177 186
219 210 207 178 235 218 235 227 54 104 260 217 213 232 254 106 266 273 299 235 241 218 184 166 143 136 161 167 161 162 169 173 183 181 176 167 167 178 184 183 180 173 183 206
166 192 213 226 242 253 248 146 130 153 244 252 183 225 191 193 215 290 310 349 25 70 130 120 135 152 157 147 158 169 166 183 182 148 150 162 174 180 187 179 172 178 195 190
168 168 193 207 225 243 179 108 179 188 163 176 219 239 241 246 304 323 349 42 80 108 103 102 125 119 127 153 155 162 180 169 150 155 168 175 180 182 177 177 185 191 188 192
217 195 180 184 207 225 218 101 345 259 86 44 279 302 255 219 241 273 299 59 59 87 90 80 111 98 88 146 177 171 165 146 155 165 176 178 175 181 180 182 177 167 178 189
217 225 174 121 228 236 218 181 177 80 197 216 263 266 218 260 210 202 135 143 124 61 118 121 117 123 122 106 103 120 140 145 156 165 162 153 158 146 145 144 162 166 175 180
114 135 176 292 288 296 245 217 175 191 180 183 213 243 220 191 208 163 138 120 136 112 73 103 128 124 115 101 83 79 127 136 131 123 127 126 124 139 124 99 139 141 116 156
183 188 173 214 207 203 205 198 184 160 188 183 177 259 244 179 169 136 108 101 81 106 81 103 98 111 108 98 87 70 76 114 124 118 123 135 131 126 128 129 97 125 140 175